EW8832 Weather Reports


Display with metric or nautical units.
time (UTC)temp
F
wind
direction
speed
MPH
gust
MPH
rain 1hr
in
rain 24hr
in
rain mn
in
humidity
%
barometer
mb
20260502220018 65 320 7.0 13.0 0.00 0.00 0.00 36 1017.8
20260502214531 65 316 7.0 18.0 0.00 0.00 0.00 38 1017.9
20260502213019 65 323 7.0 14.0 0.00 0.00 0.00 37 1018.0
20260502211525 66 316 4.0 11.0 0.00 0.00 0.00 38 1018.1
20260502210026 65 298 4.0 14.0 0.00 0.00 0.00 39 1018.2
20260502204518 65 332 3.0 17.0 0.00 0.00 0.00 39 1018.3
20260502203017 65 311 10.0 16.0 0.00 0.00 0.00 39 1018.5
20260502201519 65 289 7.0 13.0 0.00 0.00 0.00 39 1018.5
20260502200015 65 341 5.0 18.0 0.00 0.00 0.00 40 1018.7
20260502194514 65 302 6.0 15.0 0.00 0.00 0.00 41 1018.7
20260502193014 65 297 7.0 15.0 0.00 0.00 0.00 42 1018.7
20260502191513 64 326 11.0 19.0 0.00 0.00 0.00 39 1018.8
20260502190020 65 284 8.0 17.0 0.00 0.00 0.00 41 1018.8
20260502184510 64 294 10.0 17.0 0.00 0.00 0.00 40 1018.8
20260502183009 64 321 11.0 17.0 0.00 0.00 0.00 39 1019.0
20260502181508 64 9 5.0 14.0 0.00 0.00 0.00 42 1019.1
20260502161556 61 302 5.0 13.0 0.00 0.00 0.00 44 1019.9
20260502160105 60 19 5.0 11.0 0.00 0.00 0.00 43 1019.8
20260502151551 59 37 6.0 12.0 0.00 0.00 0.00 45 1019.6
20260502121510 46 355 0.0 2.0 0.00 0.00 0.00 89 1018.7
20260502114506 45 326 1.0 3.0 0.00 0.00 0.00 91 1018.5
20260502111503 44 24 0.0 1.0 0.00 0.00 0.00 92 1018.1
20260502110005 44 24 0.0 2.0 0.00 0.00 0.00 91 1018.0
20260502104600 44 24 0.0 4.0 0.00 0.00 0.00 92 1017.9
20260502101615 42 13 0.0 0.0 0.00 0.00 0.00 91 1017.6
20260502100110 43 13 0.0 0.0 0.00 0.00 0.00 90 1017.5
20260502070040 44 13 0.0 0.0 0.00 0.00 0.00 84 1017.1
20260502064600 45 13 0.0 0.0 0.00 0.00 0.00 85 1017.0
20260502061535 44 13 0.0 0.0 0.00 0.00 0.00 86 1017.0
20260502060043 44 13 0.0 0.0 0.00 0.00 0.00 87 1017.0
20260502054534 44 13 0.0 0.0 0.00 0.00 0.00 86 1017.1
20260502051534 45 13 0.0 0.0 0.00 0.00 0.00 82 1017.2
20260502050033 45 13 0.0 0.0 0.00 0.00 0.00 82 1017.3
20260502044529 47 13 0.0 0.0 0.00 0.00 0.00 78 1017.3
20260502041533 48 13 0.0 0.0 0.00 0.00 0.00 76 1017.1
20260502040026 48 13 0.0 0.0 0.00 0.00 0.00 75 1017.2
20260502034527 49 13 0.0 0.0 0.00 0.00 0.00 74 1017.3
20260502031527 51 13 0.0 0.0 0.00 0.00 0.00 70 1017.2
20260502030027 51 13 0.0 0.0 0.00 0.00 0.00 67 1017.1
20260502024531 52 13 0.0 0.0 0.00 0.00 0.00 65 1017.1
20260502021525 54 13 0.0 0.0 0.00 0.00 0.00 59 1016.9
20260502020025 55 13 0.0 0.0 0.00 0.00 0.00 55 1016.8
20260502014525 56 13 0.0 0.0 0.00 0.00 0.00 53 1016.6
20260502011524 58 13 0.0 3.0 0.00 0.00 0.00 43 1016.3
20260502010029 59 13 0.0 2.0 0.00 0.00 0.00 42 1016.2
20260502004530 60 13 2.0 5.0 0.00 0.00 0.00 40 1016.0
20260502001524 61 30 5.0 12.0 0.00 0.00 0.00 38 1015.5
20260502000024 61 46 5.0 13.0 0.00 0.00 0.00 37 1015.2
20260501234523 61 57 5.0 16.0 0.00 0.00 0.00 37 1015.2
20260501231521 62 25 11.0 16.0 0.00 0.00 0.00 34 1014.9
20260501230025 63 12 7.0 15.0 0.00 0.00 0.00 34 1015.0
20260501224520 63 18 10.0 18.0 0.00 0.00 0.00 33 1015.0
20260501221521 64 26 11.0 16.0 0.00 0.00 0.00 31 1014.7